| time (UTC) | temp C | wind direction | speed KPH | gust KPH | rain 1hr cm | rain 24hr cm | rain mn cm | humidity % | barometer mb |
| 20260502183322 | 12 | 271 | 6.4 | 22.5 | 0.00 | 0.00 | 0.00 | 48 | 1011.1 |
| 20260502182151 | 11 | 234 | 8.0 | 22.5 | 0.00 | 0.00 | 0.00 | 48 | 1011.5 |
| 20260502181552 | 11 | 234 | 8.0 | 22.5 | 0.00 | 0.00 | 0.00 | 48 | 1011.5 |
| 20260502180942 | 11 | 211 | 4.8 | 19.3 | 0.00 | 0.00 | 0.00 | 49 | 1011.5 |
| 20260502180316 | 11 | 211 | 4.8 | 19.3 | 0.00 | 0.00 | 0.00 | 49 | 1011.5 |
| 20260502163930 | 11 | 191 | 9.7 | 20.9 | 0.00 | 0.00 | 0.00 | 52 | 1012.1 |
| 20260502163338 | 11 | 191 | 9.7 | 20.9 | 0.00 | 0.00 | 0.00 | 52 | 1012.1 |
| 20260502162735 | 11 | 277 | 3.2 | 16.1 | 0.00 | 0.00 | 0.00 | 53 | 1012.1 |
| 20260502162134 | 11 | 277 | 3.2 | 16.1 | 0.00 | 0.00 | 0.00 | 53 | 1012.1 |
| 20260502161514 | 11 | 277 | 3.2 | 16.1 | 0.00 | 0.00 | 0.00 | 53 | 1012.1 |
| 20260502152129 | 10 | 245 | 14.5 | 24.1 | 0.00 | 0.00 | 0.00 | 53 | 1012.1 |
| 20260502151544 | 10 | 182 | 3.2 | 16.1 | 0.00 | 0.00 | 0.00 | 62 | 1012.1 |
| 20260502150917 | 10 | 182 | 3.2 | 16.1 | 0.00 | 0.00 | 0.00 | 62 | 1012.1 |
| 20260502150345 | 10 | 182 | 3.2 | 16.1 | 0.00 | 0.00 | 0.00 | 62 | 1012.1 |
| 20260502130324 | 5 | 237 | 0.0 | 0.0 | 0.00 | 0.00 | 0.00 | 99 | 1012.1 |
| 20260502123319 | 2 | 140 | 0.0 | 0.0 | 0.00 | 0.00 | 0.00 | 98 | 1012.1 |
| 20260502122440 | 2 | 243 | 0.0 | 0.0 | 0.00 | 0.00 | 0.00 | 98 | 1012.1 |
| 20260502121222 | 1 | 243 | 0.0 | 3.2 | 0.00 | 0.00 | 0.00 | 98 | 1012.1 |
| 20260502120644 | 1 | 243 | 0.0 | 3.2 | 0.00 | 0.00 | 0.00 | 98 | 1012.1 |
| 20260502115451 | 1 | 243 | 4.8 | 4.8 | 0.00 | 0.00 | 0.00 | 98 | 1012.1 |
| 20260502114813 | 1 | 243 | 4.8 | 4.8 | 0.00 | 0.00 | 0.00 | 98 | 1012.1 |
| 20260502114232 | 1 | 243 | 0.0 | 0.0 | 0.00 | 0.00 | 0.00 | 98 | 1011.8 |
| 20260502113611 | 1 | 243 | 0.0 | 0.0 | 0.00 | 0.00 | 0.00 | 98 | 1011.8 |
| 20260502113039 | 1 | 243 | 0.0 | 0.0 | 0.00 | 0.00 | 0.00 | 98 | 1011.8 |
| 20260502112437 | 1 | 243 | 0.0 | 0.0 | 0.00 | 0.00 | 0.00 | 98 | 1011.8 |
| 20260502111828 | 1 | 243 | 0.0 | 0.0 | 0.00 | 0.00 | 0.00 | 98 | 1011.8 |
| 20260502110923 | 1 | 243 | 0.0 | 0.0 | 0.00 | 0.00 | 0.00 | 98 | 1011.8 |
| 20260502105418 | 1 | 243 | 3.2 | 4.8 | 0.00 | 0.00 | 0.00 | 97 | 1011.8 |
| 20260502104829 | 1 | 243 | 3.2 | 4.8 | 0.00 | 0.00 | 0.00 | 97 | 1011.8 |
| 20260502104217 | 1 | 87 | 0.0 | 0.0 | 0.00 | 0.00 | 0.00 | 97 | 1012.1 |
| 20260502103635 | 1 | 87 | 0.0 | 0.0 | 0.00 | 0.00 | 0.00 | 97 | 1012.1 |
| 20260502103043 | 1 | 87 | 0.0 | 0.0 | 0.00 | 0.00 | 0.00 | 97 | 1012.1 |
| 20260502102419 | 1 | 87 | 0.0 | 0.0 | 0.00 | 0.00 | 0.00 | 97 | 1012.1 |
| 20260502101846 | 1 | 87 | 0.0 | 0.0 | 0.00 | 0.00 | 0.00 | 97 | 1012.1 |
| 20260502100630 | 1 | 87 | 0.0 | 0.0 | 0.00 | 0.00 | 0.00 | 97 | 1012.1 |
| 20260502091252 | 1 | 87 | 0.0 | 0.0 | 0.00 | 0.00 | 0.00 | 97 | 1012.1 |
| 20260502090624 | 1 | 87 | 0.0 | 0.0 | 0.00 | 0.00 | 0.00 | 97 | 1012.1 |
| 20260502071224 | 2 | 247 | 0.0 | 0.0 | 0.00 | 0.00 | 0.00 | 96 | 1011.8 |
| 20260502070652 | 2 | 247 | 0.0 | 0.0 | 0.00 | 0.00 | 0.00 | 96 | 1011.8 |
| 20260502070035 | 2 | 247 | 0.0 | 0.0 | 0.00 | 0.00 | 0.00 | 96 | 1011.8 |
| 20260502063651 | 2 | 247 | 0.0 | 0.0 | 0.00 | 0.00 | 0.00 | 96 | 1012.1 |
| 20260502063042 | 2 | 247 | 0.0 | 0.0 | 0.00 | 0.00 | 0.00 | 96 | 1012.5 |
| 20260502061814 | 2 | 247 | 0.0 | 0.0 | 0.00 | 0.00 | 0.00 | 96 | 1012.5 |
| 20260502061249 | 2 | 247 | 0.0 | 0.0 | 0.00 | 0.00 | 0.00 | 95 | 1012.5 |
| 20260502060622 | 2 | 247 | 0.0 | 0.0 | 0.00 | 0.00 | 0.00 | 95 | 1012.5 |
| 20260502060047 | 2 | 247 | 0.0 | 0.0 | 0.00 | 0.00 | 0.00 | 95 | 1012.5 |
| 20260502055448 | 2 | 247 | 0.0 | 0.0 | 0.00 | 0.00 | 0.00 | 95 | 1012.5 |
| 20260502054820 | 2 | 247 | 0.0 | 0.0 | 0.00 | 0.00 | 0.00 | 95 | 1012.5 |
| 20260502054251 | 2 | 247 | 0.0 | 0.0 | 0.00 | 0.00 | 0.00 | 95 | 1012.5 |
| 20260502053021 | 2 | 247 | 0.0 | 0.0 | 0.00 | 0.00 | 0.00 | 94 | 1012.5 |
| 20260502052415 | 2 | 247 | 0.0 | 0.0 | 0.00 | 0.00 | 0.00 | 94 | 1012.5 |
| 20260502051826 | 2 | 247 | 0.0 | 0.0 | 0.00 | 0.00 | 0.00 | 94 | 1012.5 |
| 20260502051220 | 3 | 247 | 0.0 | 0.0 | 0.00 | 0.00 | 0.00 | 94 | 1012.5 |
| 20260502050628 | 3 | 247 | 0.0 | 0.0 | 0.00 | 0.00 | 0.00 | 94 | 1012.5 |
| 20260502050039 | 3 | 247 | 0.0 | 0.0 | 0.00 | 0.00 | 0.00 | 94 | 1012.5 |
| 20260502045433 | 3 | 247 | 0.0 | 0.0 | 0.00 | 0.00 | 0.00 | 94 | 1012.5 |
| 20260502044838 | 3 | 247 | 0.0 | 0.0 | 0.00 | 0.00 | 0.00 | 94 | 1012.5 |
| 20260502043951 | 3 | 247 | 0.0 | 0.0 | 0.00 | 0.00 | 0.00 | 94 | 1012.8 |
| 20260502042725 | 3 | 247 | 0.0 | 0.0 | 0.00 | 0.00 | 0.00 | 93 | 1012.8 |
| 20260502042129 | 3 | 247 | 0.0 | 0.0 | 0.00 | 0.00 | 0.00 | 93 | 1012.8 |
| 20260502041554 | 3 | 247 | 0.0 | 0.0 | 0.00 | 0.00 | 0.00 | 93 | 1012.8 |
| 20260502040935 | 4 | 247 | 0.0 | 0.0 | 0.00 | 0.00 | 0.00 | 93 | 1012.5 |
| 20260502040353 | 4 | 247 | 0.0 | 0.0 | 0.00 | 0.00 | 0.00 | 93 | 1012.5 |
| 20260502035735 | 4 | 247 | 0.0 | 0.0 | 0.00 | 0.00 | 0.00 | 92 | 1012.5 |
| 20260502033952 | 4 | 247 | 0.0 | 0.0 | 0.00 | 0.00 | 0.00 | 91 | 1012.5 |
| 20260502033341 | 4 | 247 | 0.0 | 0.0 | 0.00 | 0.00 | 0.00 | 91 | 1012.5 |
| 20260502032121 | 5 | 247 | 0.0 | 0.0 | 0.00 | 0.00 | 0.00 | 90 | 1012.5 |
| 20260502031527 | 5 | 247 | 0.0 | 0.0 | 0.00 | 0.00 | 0.00 | 88 | 1012.5 |
| 20260502030936 | 5 | 247 | 0.0 | 0.0 | 0.00 | 0.00 | 0.00 | 88 | 1012.5 |
| 20260502030329 | 5 | 247 | 0.0 | 0.0 | 0.00 | 0.00 | 0.00 | 88 | 1012.5 |
| 20260502025726 | 6 | 247 | 0.0 | 0.0 | 0.00 | 0.00 | 0.00 | 87 | 1012.5 |
| 20260502025148 | 6 | 247 | 0.0 | 0.0 | 0.00 | 0.00 | 0.00 | 87 | 1012.5 |
| 20260502024553 | 6 | 247 | 0.0 | 0.0 | 0.00 | 0.00 | 0.00 | 87 | 1012.5 |
| 20260502023949 | 6 | 247 | 0.0 | 0.0 | 0.00 | 0.00 | 0.00 | 85 | 1012.5 |
| 20260502023327 | 6 | 247 | 0.0 | 0.0 | 0.00 | 0.00 | 0.00 | 85 | 1012.5 |
| 20260502022736 | 6 | 247 | 0.0 | 0.0 | 0.00 | 0.00 | 0.00 | 83 | 1011.8 |
| 20260502022149 | 6 | 247 | 0.0 | 0.0 | 0.00 | 0.00 | 0.00 | 83 | 1011.8 |
| 20260502021524 | 7 | 247 | 0.0 | 0.0 | 0.00 | 0.00 | 0.00 | 82 | 1011.8 |
| 20260502020917 | 7 | 247 | 0.0 | 0.0 | 0.00 | 0.00 | 0.00 | 82 | 1011.8 |
| 20260502020338 | 7 | 247 | 0.0 | 0.0 | 0.00 | 0.00 | 0.00 | 82 | 1011.8 |
| 20260502015114 | 7 | 247 | 0.0 | 0.0 | 0.00 | 0.00 | 0.00 | 79 | 1011.5 |
| 20260502014554 | 7 | 247 | 0.0 | 0.0 | 0.00 | 0.00 | 0.00 | 79 | 1011.5 |
| 20260502013953 | 8 | 247 | 0.0 | 0.0 | 0.00 | 0.00 | 0.00 | 76 | 1011.5 |
| 20260502013312 | 8 | 247 | 0.0 | 0.0 | 0.00 | 0.00 | 0.00 | 76 | 1011.5 |
| 20260502012741 | 9 | 248 | 0.0 | 1.6 | 0.00 | 0.00 | 0.00 | 72 | 1011.1 |
| 20260502012136 | 9 | 248 | 0.0 | 1.6 | 0.00 | 0.00 | 0.00 | 72 | 1011.1 |
| 20260502011521 | 10 | 178 | 0.0 | 19.3 | 0.00 | 0.00 | 0.00 | 69 | 1010.8 |
| 20260502010935 | 10 | 178 | 0.0 | 19.3 | 0.00 | 0.00 | 0.00 | 69 | 1010.8 |
| 20260502010317 | 10 | 178 | 0.0 | 19.3 | 0.00 | 0.00 | 0.00 | 69 | 1010.8 |
| 20260502005749 | 10 | 252 | 11.3 | 19.3 | 0.00 | 0.00 | 0.00 | 67 | 1010.4 |
| 20260502005118 | 10 | 252 | 11.3 | 19.3 | 0.00 | 0.00 | 0.00 | 67 | 1010.4 |
| 20260502004519 | 11 | 243 | 9.7 | 22.5 | 0.00 | 0.00 | 0.00 | 66 | 1010.4 |
| 20260502003914 | 11 | 243 | 9.7 | 22.5 | 0.00 | 0.00 | 0.00 | 66 | 1010.4 |
| 20260502003311 | 11 | 243 | 9.7 | 22.5 | 0.00 | 0.00 | 0.00 | 66 | 1010.4 |
| 20260502002144 | 11 | 266 | 11.3 | 22.5 | 0.00 | 0.00 | 0.00 | 67 | 1010.1 |
| 20260502001533 | 11 | 266 | 11.3 | 22.5 | 0.00 | 0.00 | 0.00 | 67 | 1010.1 |
| 20260502000923 | 11 | 261 | 14.5 | 27.4 | 0.00 | 0.00 | 0.00 | 66 | 1009.8 |
| 20260502000354 | 11 | 261 | 14.5 | 27.4 | 0.00 | 0.00 | 0.00 | 66 | 1009.8 |
| 20260501235453 | 12 | 247 | 11.3 | 20.9 | 0.00 | 0.00 | 0.00 | 69 | 1009.1 |
| 20260501234840 | 12 | 247 | 11.3 | 20.9 | 0.00 | 0.00 | 0.00 | 69 | 1009.1 |
| 20260501233932 | 12 | 212 | 6.4 | 17.7 | 0.00 | 0.00 | 0.00 | 71 | 1008.8 |
| 20260501233330 | 12 | 212 | 6.4 | 17.7 | 0.00 | 0.00 | 0.00 | 71 | 1008.8 |
| 20260501232119 | 12 | 248 | 8.0 | 19.3 | 0.00 | 0.00 | 0.00 | 73 | 1008.8 |
| 20260501231520 | 12 | 272 | 6.4 | 14.5 | 0.00 | 0.00 | 0.00 | 74 | 1008.8 |
| 20260501230915 | 12 | 272 | 6.4 | 14.5 | 0.00 | 0.00 | 0.00 | 74 | 1008.8 |
| 20260501230339 | 12 | 272 | 6.4 | 14.5 | 0.00 | 0.00 | 0.00 | 74 | 1008.8 |
| 20260501225745 | 12 | 216 | 8.0 | 8.0 | 0.00 | 0.00 | 0.00 | 74 | 1008.8 |
| 20260501224521 | 12 | 244 | 3.2 | 8.0 | 0.00 | 0.00 | 0.00 | 74 | 1008.8 |
| 20260501223953 | 12 | 244 | 3.2 | 8.0 | 0.00 | 0.00 | 0.00 | 74 | 1008.8 |
| 20260501223351 | 12 | 244 | 3.2 | 8.0 | 0.00 | 0.00 | 0.00 | 74 | 1008.8 |
| 20260501222716 | 12 | 247 | 6.4 | 8.0 | 0.00 | 0.00 | 0.00 | 74 | 1008.8 |
| 20260501222115 | 12 | 247 | 6.4 | 8.0 | 0.00 | 0.00 | 0.00 | 74 | 1008.8 |
| 20260501221520 | 11 | 257 | 8.0 | 11.3 | 0.00 | 0.00 | 0.00 | 75 | 1008.8 |
| 20260501220340 | 11 | 257 | 8.0 | 11.3 | 0.00 | 0.00 | 0.00 | 75 | 1008.8 |
| 20260501215719 | 12 | 229 | 4.8 | 17.7 | 0.00 | 0.00 | 0.00 | 74 | 1008.8 |
| 20260501215129 | 12 | 229 | 4.8 | 17.7 | 0.00 | 0.00 | 0.00 | 74 | 1008.8 |
| 20260501214546 | 12 | 229 | 4.8 | 17.7 | 0.00 | 0.00 | 0.00 | 74 | 1008.8 |
| 20260501213923 | 12 | 202 | 4.8 | 11.3 | 0.00 | 0.00 | 0.00 | 71 | 1008.4 |
| 20260501213324 | 12 | 202 | 4.8 | 11.3 | 0.00 | 0.00 | 0.00 | 71 | 1008.4 |
| 20260501212738 | 12 | 263 | 8.0 | 11.3 | 0.00 | 0.00 | 0.00 | 71 | 1008.4 |
| 20260501212141 | 12 | 263 | 8.0 | 11.3 | 0.00 | 0.00 | 0.00 | 71 | 1008.4 |
| 20260501210942 | 12 | 184 | 0.0 | 16.1 | 0.00 | 0.00 | 0.00 | 71 | 1008.1 |
| 20260501210334 | 12 | 184 | 0.0 | 16.1 | 0.00 | 0.00 | 0.00 | 71 | 1008.1 |
| 20260501205152 | 12 | 263 | 6.4 | 20.9 | 0.00 | 0.00 | 0.00 | 72 | 1008.4 |
| 20260501204536 | 12 | 263 | 6.4 | 20.9 | 0.00 | 0.00 | 0.00 | 72 | 1008.4 |
| 20260501203941 | 13 | 260 | 9.7 | 29.0 | 0.00 | 0.00 | 0.00 | 74 | 1008.4 |
| 20260501203329 | 13 | 260 | 9.7 | 29.0 | 0.00 | 0.00 | 0.00 | 74 | 1008.4 |
| 20260501202444 | 13 | 252 | 25.7 | 33.8 | 0.00 | 0.00 | 0.00 | 73 | 1008.1 |
| 20260501201809 | 13 | 252 | 25.7 | 33.8 | 0.00 | 0.00 | 0.00 | 73 | 1008.1 |
| 20260501201239 | 13 | 240 | 12.9 | 16.1 | 0.00 | 0.00 | 0.00 | 77 | 1007.7 |
| 20260501200048 | 13 | 240 | 12.9 | 16.1 | 0.00 | 0.00 | 0.00 | 77 | 1007.7 |
| 20260501194853 | 13 | 263 | 6.4 | 14.5 | 0.00 | 0.00 | 0.00 | 78 | 1008.1 |
| 20260501194230 | 13 | 254 | 3.2 | 24.1 | 0.00 | 0.00 | 0.00 | 74 | 1007.7 |
| 20260501193623 | 13 | 254 | 3.2 | 24.1 | 0.00 | 0.00 | 0.00 | 74 | 1007.7 |
| 20260501193039 | 13 | 254 | 3.2 | 24.1 | 0.00 | 0.00 | 0.00 | 74 | 1007.7 |
| 20260501192423 | 14 | 253 | 17.7 | 24.1 | 0.00 | 0.00 | 0.00 | 65 | 1008.1 |
| 20260501191236 | 16 | 232 | 0.0 | 9.7 | 0.00 | 0.00 | 0.00 | 56 | 1007.4 |
| 20260501190645 | 16 | 232 | 0.0 | 9.7 | 0.00 | 0.00 | 0.00 | 56 | 1007.4 |
| 20260501190012 | 16 | 191 | 0.0 | 16.1 | 0.00 | 0.00 | 0.00 | 53 | 1007.1 |
| 20260501185428 | 16 | 191 | 0.0 | 16.1 | 0.00 | 0.00 | 0.00 | 53 | 1007.1 |
| 20260501184841 | 16 | 191 | 0.0 | 16.1 | 0.00 | 0.00 | 0.00 | 53 | 1007.1 |
| 20260501184223 | 17 | 223 | 6.4 | 17.7 | 0.00 | 0.00 | 0.00 | 52 | 1007.1 |
| 20260501183648 | 17 | 223 | 6.4 | 17.7 | 0.00 | 0.00 | 0.00 | 52 | 1007.1 |